Flight Track Log - Related Links

Times and Time Zones

All times are in EDT time to prevent confusion due to time zone crossing. See the SWA542 flight status page for this flight to view local times or setup timezone preferences in your user account.

Time Position Orientation Groundspeed Altitude Reporting Facility
EDT Latitude Longitude Course Direction KTS MPH feet Rate Location/Type
23:18 41.8000 -87.7333 90° East 132 152 2,200  Level Chicago TRACON
23:19 41.8000 -87.6667 90° East 200 230 3,700 1,526 Climbing Chicago TRACON
23:20 41.7989 -87.5894 91° East 201 231 5,100 724 Climbing Chicago Center
23:21 41.8022 -87.4936 87° East 234 269 5,100 98 Level Chicago Center
23:22 41.8042 -87.3978 88° East 251 289 5,300 1,854 Climbing Chicago Center
23:23 41.8097 -87.2986 86° East 265 305 8,900 3,317 Climbing Chicago Center
23:24 41.8183 -87.1858 84° East 300 345 12,100 2,976 Climbing Chicago Center
23:25 41.8108 -87.0617 95° East 328 377 15,000 1,951 Climbing Chicago Center
23:26 41.8031 -86.9303 94° East 348 400 16,100 2,213 Climbing Chicago Center
23:27 41.7947 -86.7864 94° East 384 442 19,500 3,268 Climbing Chicago Center
23:28 41.7856 -86.6272 94° East 396 456 22,800 2,537 Climbing Chicago Center
23:29 41.7764 -86.4714 94° East 418 481 24,700 2,195 Climbing Chicago Center
23:30 41.7678 -86.3089 94° East 436 502 27,300 2,098 Climbing Chicago Center
23:31 41.7642 -86.1203 91° East 444 511 29,000 836 Climbing Chicago Center
23:32 41.7583 -85.9322 92° East 472 543 29,000  Level Chicago Center
23:33 41.7542 -85.7592 92° East 466 536 29,000  Level Chicago Center
23:34 41.7519 -85.5847 91° East 464 534 29,000  Level Chicago Center
23:35 41.7486 -85.4072 91° East 464 534 29,000  Level Chicago Center
23:36 41.7461 -85.2314 91° East 463 533 29,000  Level Chicago Center
23:37 41.7431 -85.1172 92° East 461 531 29,000  Level Cleveland Center
23:38 41.7097 -84.9589 106° East 456 525 29,000  Level Cleveland Center
23:39 41.6717 -84.8006 108° East 446 513 29,000  Level Cleveland Center
23:40 41.6250 -84.6503 113° Southeast 441 507 29,000  Level Cleveland Center
23:41 41.5653 -84.5133 120° Southeast 431 496 29,000  Level Cleveland Center
23:42 41.5117 -84.3658 116° Southeast 436 502 29,000  Level Cleveland Center
23:43 41.4581 -84.2242 117° Southeast 436 502 29,000  Level Cleveland Center
23:44 41.3828 -84.0981 128° Southeast 436 502 29,000  Level Cleveland Center
23:45 41.3047 -83.9861 133° Southeast 426 490 29,000 -200 Level Cleveland Center
23:46 41.2139 -83.8872 141° Southeast 420 483 28,600 -1,200 Descending Cleveland Center
23:47 41.1228 -83.7889 141° Southeast 426 490 26,600 -1,950 Descending Cleveland Center
23:48 41.0503 -83.7000 137° Southeast 410 472 24,700 -2,100 Descending Cleveland Center
23:49 40.9653 -83.6053 140° Southeast 404 465 22,400 -2,100 Descending Cleveland Center
23:50 40.8775 -83.5244 145° Southeast 388 447 20,500 -1,800 Descending Cleveland Center
23:51 40.8094 -83.4225 131° Southeast 374 430 18,800 -1,596 Descending Cleveland Center
23:53 40.6422 -83.2072 136° Southeast 347 399 15,100 -1,588 Descending Indianapolis Center
23:54 40.5669 -83.1108 136° Southeast 334 384 13,400 -1,625 Descending Indianapolis Center
23:55 40.5200 -83.0875 159° South 310 357 12,500 -1,377 Descending Indianapolis Center
23:55 40.4944 -83.0847 175° South 313 360 12,000 -1,279 Descending Indianapolis Center
23:56 40.4403 -83.0919 186° South 274 315 11,200 -1,082 Descending Indianapolis Center
23:56 40.4172 -83.0931 182° South 279 321 10,900 -667 Descending Indianapolis Center
23:57 40.3706 -83.1000 186° South 263 303 10,600 -1,279 Descending Indianapolis Center
23:58 40.3306 -83.0956 175° South 269 310 9,600 -1,475 Descending Indianapolis Center
23:58 40.3008 -83.0783 156° South 267 307 9,100 -1,452 Descending Indianapolis Center
23:59 40.2619 -83.0569 157° South 268 308 8,100 -1,475 Descending Indianapolis Center
23:59 40.2344 -83.0378 152° Southeast 267 307 7,600 -1,377 Descending Indianapolis Center
00:00 40.2083 -82.9875 124° Southeast 279 321 6,700 -1,400 Descending Indianapolis Center
00:00 40.1878 -82.9558 130° Southeast 280 322 6,200 -1,377 Descending Indianapolis Center
00:01 40.1608 -82.9081 126° Southeast 277 319 5,300 -984 Descending Indianapolis Center
00:01 40.1428 -82.8797 130° Southeast 269 310 5,200 -590 Descending Indianapolis Center
00:02 40.1136 -82.8372 132° Southeast 265 305 4,700 -655 Descending Indianapolis Center
00:02 40.1028 -82.8208 131° Southeast 232 267 4,600 -787 Descending Indianapolis Center
00:03 40.0744 -82.7767 130° Southeast 234 269 3,900 -800 Descending Indianapolis Center
00:03 40.0603 -82.7642 146° Southeast 207 238 3,800 -885 Descending Indianapolis Center
00:04 40.0250 -82.7464 159° South 212 244 3,000 -787 Descending Indianapolis Center
00:04 40.0108 -82.7533 201° Southwest 183 211 3,000 -787 Level Indianapolis Center
00:05 39.9922 -82.7856 233° Southwest 179 206 2,200 -1,100 Descending Indianapolis Center
00:05 39.9908 -82.8056 265° West 140 161 1,900 -787 Descending Indianapolis Center
00:06 39.9889 -82.8375 265° West 153 176 1,400 -787 Descending Indianapolis Center
00:06 39.9914 -82.8572 279° West 140 161 1,100 -295 Descending Indianapolis Center
00:07 39.9931 -82.8825 275° West 149 171 1,100  Level Indianapolis Center

Login

Don't have an account? Register now (free) for customized features, flight alerts, and more!